Flag Weather past 2 weeks in Almere, Netherlands

Now
57 °F

Clear.


Feels Like: 55 °F
Forecast: 53 / 62 °F
Wind: 9 mph from Southeast

Location: Amsterdam Schiphol Airport

Current Time: Oct 31, 2014 at 10:02:31 PM

Latest Report: Oct 31, 2014 at 9:25 PM


Visibility: 10 mi

Pressure: 30.09 "Hg

Humidity: 88%

Dew point: 54 °F

Location of AlmereLocation

Historic Weather in Almere — Graph

°F

Almere temperature yesterday

Maximum temperature yesterday: 59 °F (at 1:55 PM)
Minimum temperature yesterday: 52 °F (at 12:25 AM)
Average temperature yesterday: 55 °F

Past Weeks' High & Low Weather Summary

 TemperatureHumidityPressure
High72 °F (Oct 18, 3:55 PM)100% (Oct 16, 9:55 PM)30.21 "Hg (Oct 16, 9:55 PM)
Low46 °F (Oct 22, 4:55 AM)6% (Oct 21, 5:25 PM)29.42 "Hg (Oct 21, 1:25 PM)
Average55 °F89%30.01 "Hg
* Reported Oct 16 9:25 PM — Oct 31 8:55 PM, Almere, Weather by CustomWeather, © 2014

Note: Actual official high and low records may vary slightly from our data, if they occured in-between our weather recording intervals... More about our weather records

Advertising

Almere weather history for previous 24 hours

 ConditionsComfort  
Time TempWeatherWind HumidityBarometerVisibility
8:55 PM
Oct 31
55 °FClear.7 mph94%30.09 "Hg10 mi
8:25 PM57 °FClear.8 mph88%30.09 "Hg10 mi
7:55 PM57 °FClear.8 mph94%30.09 "Hg10 mi
7:25 PM57 °FClear.8 mph94%30.12 "Hg10 mi
6:55 PM57 °FClear.7 mph94%30.12 "Hg10 mi
6:25 PM57 °FClear.6 mph94%30.12 "Hg10 mi
5:55 PM57 °FClear.7 mph94%30.12 "Hg10 mi
5:25 PM57 °FClear.6 mph94%30.12 "Hg10 mi
4:55 PM59 °FPassing clouds.7 mph88%30.12 "HgN/A
4:25 PM61 °FSunny.9 mph83%30.12 "Hg10 mi
3:55 PM61 °FSunny.10 mph88%30.12 "Hg10 mi
3:25 PM61 °FPassing clouds.9 mph88%30.12 "HgN/A
2:55 PM61 °FSunny.8 mph83%30.12 "Hg10 mi
2:25 PM61 °FSunny.8 mph83%30.12 "Hg10 mi
1:55 PM61 °FSunny.7 mph83%30.12 "Hg10 mi
1:25 PM61 °FSunny.8 mph83%30.12 "Hg10 mi
12:55 PM61 °FSunny.6 mph83%30.15 "Hg10 mi
12:25 PM59 °FSunny.9 mph88%30.15 "Hg10 mi
11:55 AM59 °FSunny.8 mph88%30.15 "Hg10 mi
11:25 AM57 °FSunny.9 mph94%30.15 "Hg10 mi
10:55 AM57 °FSunny.8 mph88%30.15 "Hg10 mi
10:25 AM55 °FSunny.9 mph94%30.15 "Hg10 mi
9:55 AM55 °FClear.8 mph94%30.15 "Hg5 mi
9:25 AM54 °FClear.8 mph100%30.15 "Hg4 mi
8:55 AM54 °FClear.8 mph100%30.15 "Hg4 mi
8:25 AM54 °FFog.7 mph94%30.15 "Hg4 mi
7:55 AM52 °FFog.7 mph100%30.12 "Hg3 mi
7:25 AM52 °FFog.6 mph100%30.12 "Hg3 mi
6:55 AM52 °FFog.7 mph100%30.12 "Hg3 mi
6:25 AM50 °FFog.6 mph100%30.12 "Hg2 mi
5:55 AM50 °FFog.6 mph100%30.12 "Hg2 mi
5:25 AM50 °FFog.7 mph100%30.12 "Hg2 mi
4:55 AM52 °FFog.8 mph100%30.12 "Hg2 mi
4:25 AM52 °FFog.8 mph100%30.12 "Hg2 mi
3:55 AM52 °FFog.8 mph100%30.12 "Hg2 mi
3:25 AM52 °FFog.8 mph100%30.12 "Hg2 mi
2:55 AM54 °FFog.8 mph100%30.12 "Hg3 mi
2:25 AM54 °FFog.8 mph100%30.15 "Hg3 mi
1:55 AM54 °FFog.8 mph100%30.15 "Hg2 mi
1:25 AM54 °FFog.8 mph100%30.15 "Hg2 mi
12:55 AM52 °FFog.7 mph100%30.15 "Hg2 mi
12:25 AM52 °FFog.7 mph100%30.15 "Hg2 mi
11:55 PM
Oct 30
52 °FFog.7 mph100%30.15 "Hg3 mi
11:25 PM52 °FFog.7 mph100%30.15 "Hg3 mi
10:55 PM54 °FClear.7 mph100%30.15 "Hg4 mi
10:25 PM54 °FClear.8 mph100%30.15 "Hg4 mi
Weather by CustomWeather, © 2014

See weather overviewHow to use our weather pages